Time,TemperatureF,DewpointF,PressureIn,WindDirection,WindDirectionDegrees,WindSpeedMPH,WindSpeedGustMPH,Humidity,HourlyPrecipIn,Conditions,Clouds,dailyrainin,SoftwareType,DateUTC
2013-08-24 00:02:00,62.0,48.0,29.80,NNW,338,0.0,3.3,60,0.00,,,0.00,WUHU216HW,2013-08-24 06:02:00,
2013-08-24 00:07:00,61.5,47.5,29.81,SSE,158,0.0,0.0,60,0.00,,,0.00,WUHU216HW,2013-08-24 06:07:00,
2013-08-24 00:12:00,61.3,47.8,29.81,SSE,158,2.2,2.2,61,0.00,,,0.00,WUHU216HW,2013-08-24 06:12:00,
2013-08-24 00:17:00,61.1,47.6,29.81,SSE,158,0.0,2.6,61,0.00,,,0.00,WUHU216HW,2013-08-24 06:17:00,
2013-08-24 00:22:00,60.9,47.5,29.81,South,180,0.0,2.6,61,0.00,,,0.00,WUHU216HW,2013-08-24 06:22:00,
2013-08-24 00:27:00,60.6,47.1,29.81,South,180,3.1,3.5,61,0.00,,,0.00,WUHU216HW,2013-08-24 06:27:00,
2013-08-24 00:32:00,60.9,47.5,29.81,SSE,158,5.8,5.8,61,0.00,,,0.00,WUHU216HW,2013-08-24 06:32:00,
2013-08-24 00:37:00,61.5,48.0,29.81,South,180,2.4,6.2,61,0.00,,,0.00,WUHU216HW,2013-08-24 06:37:00,
2013-08-24 00:42:00,61.7,47.7,29.81,South,180,3.8,6.2,60,0.00,,,0.00,WUHU216HW,2013-08-24 06:42:00,
2013-08-24 00:48:00,61.8,47.9,29.81,South,180,5.1,5.5,60,0.00,,,0.00,WUHU216HW,2013-08-24 06:48:00,
2013-08-24 00:53:00,61.8,47.9,29.81,South,180,2.0,7.1,60,0.00,,,0.00,WUHU216HW,2013-08-24 06:53:00,
2013-08-24 00:58:00,61.7,47.7,29.81,South,180,5.5,7.1,60,0.00,,,0.00,WUHU216HW,2013-08-24 06:58:00,
2013-08-24 01:03:00,61.7,47.7,29.81,SSW,203,4.9,6.0,60,0.00,,,0.00,WUHU216HW,2013-08-24 07:03:00,
2013-08-24 01:08:00,61.7,47.7,29.81,SSW,203,4.4,6.7,60,0.00,,,0.00,WUHU216HW,2013-08-24 07:08:00,
2013-08-24 01:13:00,61.8,47.9,29.81,SSW,203,5.3,6.7,60,0.00,,,0.00,WUHU216HW,2013-08-24 07:13:00,
2013-08-24 01:18:00,62.0,47.5,29.81,SSW,203,6.0,6.9,59,0.00,,,0.00,WUHU216HW,2013-08-24 07:18:00,
2013-08-24 01:23:00,62.0,47.5,29.81,SSW,203,2.6,6.9,59,0.00,,,0.00,WUHU216HW,2013-08-24 07:23:00,
2013-08-24 01:28:00,61.8,47.4,29.81,South,180,2.6,4.6,59,0.00,,,0.00,WUHU216HW,2013-08-24 07:28:00,
2013-08-24 01:33:00,61.8,47.4,29.81,SSW,203,1.3,4.0,59,0.00,,,0.00,WUHU216HW,2013-08-24 07:33:00,
2013-08-24 01:38:00,61.8,47.9,29.81,South,180,3.5,4.4,60,0.00,,,0.00,WUHU216HW,2013-08-24 07:38:00,
2013-08-24 01:43:00,61.7,47.7,29.81,South,180,3.8,4.4,60,0.00,,,0.00,WUHU216HW,2013-08-24 07:43:00,
2013-08-24 01:48:00,61.7,47.7,29.81,SSW,203,0.8,4.4,60,0.00,,,0.00,WUHU216HW,2013-08-24 07:48:00,
2013-08-24 01:53:00,61.3,47.4,29.81,South,180,2.9,4.4,60,0.00,,,0.00,WUHU216HW,2013-08-24 07:53:00,
2013-08-24 01:58:00,61.3,47.4,29.81,SSW,203,4.4,4.6,60,0.00,,,0.00,WUHU216HW,2013-08-24 07:58:00,
2013-08-24 02:03:00,61.1,47.6,29.81,SSW,203,2.6,4.6,61,0.00,,,0.00,WUHU216HW,2013-08-24 08:03:00,
2013-08-24 02:09:00,60.6,47.3,29.81,South,180,1.1,3.8,61,0.00,,,0.00,WUHU216HW,2013-08-24 08:09:00,
2013-08-24 02:14:00,59.9,46.8,29.81,South,180,0.0,3.1,62,0.00,,,0.00,WUHU216HW,2013-08-24 08:14:00,
2013-08-24 02:19:00,59.3,46.7,29.81,SSW,203,3.5,3.5,63,0.00,,,0.00,WUHU216HW,2013-08-24 08:19:00,
2013-08-24 02:24:00,58.8,46.6,29.81,SSW,203,1.3,3.5,64,0.00,,,0.00,WUHU216HW,2013-08-24 08:24:00,
2013-08-24 02:29:00,58.8,46.6,29.81,SSW,203,1.3,2.2,64,0.00,,,0.00,WUHU216HW,2013-08-24 08:29:00,
2013-08-24 02:34:00,58.6,46.4,29.81,SSW,203,0.0,2.2,64,0.00,,,0.00,WUHU216HW,2013-08-24 08:34:00,
2013-08-24 02:39:00,58.6,46.8,29.81,SSW,203,0.0,0.0,65,0.00,,,0.00,WUHU216HW,2013-08-24 08:39:00,
2013-08-24 02:44:00,58.4,46.6,29.82,SSW,203,0.0,0.0,65,0.00,,,0.00,WUHU216HW,2013-08-24 08:44:00,
2013-08-24 02:49:00,58.4,46.6,29.82,SSW,203,0.0,0.0,65,0.00,,,0.00,WUHU216HW,2013-08-24 08:49:00,
2013-08-24 02:54:00,58.1,46.3,29.82,SSW,203,0.0,0.0,65,0.00,,,0.00,WUHU216HW,2013-08-24 08:54:00,
2013-08-24 02:59:00,57.9,46.5,29.82,SSW,203,2.4,2.6,66,0.00,,,0.00,WUHU216HW,2013-08-24 08:59:00,
2013-08-24 03:04:00,58.2,46.9,29.82,SSW,203,2.0,2.6,66,0.00,,,0.00,WUHU216HW,2013-08-24 09:04:00,
2013-08-24 03:09:00,58.1,46.7,29.82,South,180,0.0,2.4,66,0.00,,,0.00,WUHU216HW,2013-08-24 09:09:00,
2013-08-24 03:14:00,57.5,46.2,29.83,NE,45,2.4,3.5,66,0.00,,,0.00,WUHU216HW,2013-08-24 09:14:00,
2013-08-24 03:19:00,57.0,46.1,29.83,NE,45,0.0,3.5,67,0.00,,,0.00,WUHU216HW,2013-08-24 09:19:00,
2013-08-24 03:24:00,56.8,46.3,29.82,SE,135,0.0,1.1,68,0.00,,,0.00,WUHU216HW,2013-08-24 09:24:00,
2013-08-24 03:29:00,56.8,46.3,29.83,NE,45,0.0,0.0,68,0.00,,,0.00,WUHU216HW,2013-08-24 09:29:00,
2013-08-24 03:34:00,56.8,46.7,29.83,NE,45,0.0,0.0,69,0.00,,,0.00,WUHU216HW,2013-08-24 09:34:00,
2013-08-24 03:39:00,56.6,46.5,29.82,NE,45,0.0,0.0,69,0.00,,,0.00,WUHU216HW,2013-08-24 09:39:00,
2013-08-24 03:44:00,57.0,46.9,29.83,NE,45,0.0,0.0,69,0.00,,,0.00,WUHU216HW,2013-08-24 09:44:00,
2013-08-24 03:49:00,57.0,46.5,29.82,SSE,158,0.0,1.7,68,0.00,,,0.00,WUHU216HW,2013-08-24 09:49:00,
2013-08-24 03:54:00,57.0,46.5,29.82,SSE,158,0.0,1.7,68,0.00,,,0.00,WUHU216HW,2013-08-24 09:54:00,
2013-08-24 03:59:00,56.8,46.3,29.83,SSE,158,0.0,0.0,68,0.00,,,0.00,WUHU216HW,2013-08-24 09:59:00,
2013-08-24 04:04:00,56.1,46.0,29.83,SSE,158,0.0,0.0,69,0.00,,,0.00,WUHU216HW,2013-08-24 10:04:00,
2013-08-24 04:10:00,55.4,45.6,29.82,SSE,158,0.0,0.0,69,0.00,,,0.00,WUHU216HW,2013-08-24 10:10:00,
2013-08-24 04:15:00,55.2,46.0,29.82,SSE,158,0.0,0.0,71,0.00,,,0.00,WUHU216HW,2013-08-24 10:15:00,
2013-08-24 04:20:00,55.0,46.1,29.83,SSE,158,0.0,0.0,72,0.00,,,0.00,WUHU216HW,2013-08-24 10:20:00,
2013-08-24 04:25:00,54.6,45.8,29.83,SSE,158,0.0,0.0,72,0.00,,,0.00,WUHU216HW,2013-08-24 10:25:00,
2013-08-24 04:30:00,54.5,46.0,29.82,SSE,158,0.0,0.0,73,0.00,,,0.00,WUHU216HW,2013-08-24 10:30:00,
2013-08-24 04:35:00,55.0,46.5,29.83,SSE,158,1.5,2.6,73,0.00,,,0.00,WUHU216HW,2013-08-24 10:35:00,
2013-08-24 04:40:00,55.0,46.5,29.83,SSE,158,0.0,2.6,73,0.00,,,0.00,WUHU216HW,2013-08-24 10:40:00,
2013-08-24 04:45:00,55.2,46.3,29.83,NNW,338,0.0,0.0,72,0.00,,,0.00,WUHU216HW,2013-08-24 10:45:00,
2013-08-24 04:50:00,55.0,46.1,29.83,SSE,158,0.0,0.0,72,0.00,,,0.00,WUHU216HW,2013-08-24 10:50:00,
2013-08-24 04:56:00,54.8,46.3,29.83,SSE,158,0.0,0.0,73,0.00,,,0.00,WUHU216HW,2013-08-24 10:56:00,
2013-08-24 05:01:00,55.0,46.5,29.82,SSE,158,0.0,0.0,73,0.00,,,0.00,WUHU216HW,2013-08-24 11:01:00,
2013-08-24 05:06:00,55.0,46.5,29.83,NNW,338,0.0,0.0,73,0.00,,,0.00,WUHU216HW,2013-08-24 11:06:00,
2013-08-24 05:11:00,54.8,46.3,29.83,SSE,158,0.0,0.0,73,0.00,,,0.00,WUHU216HW,2013-08-24 11:11:00,
2013-08-24 05:16:00,54.8,46.3,29.82,SSE,158,0.0,0.0,73,0.00,,,0.00,WUHU216HW,2013-08-24 11:16:00,
2013-08-24 05:21:00,55.2,46.7,29.83,SSE,158,0.0,0.0,73,0.00,,,0.00,WUHU216HW,2013-08-24 11:21:00,
2013-08-24 05:26:00,55.0,46.8,29.83,SSE,158,0.0,0.0,74,0.00,,,0.00,WUHU216HW,2013-08-24 11:26:00,
2013-08-24 05:31:00,54.6,46.5,29.83,SSE,158,0.0,0.0,74,0.00,,,0.00,WUHU216HW,2013-08-24 11:31:00,
2013-08-24 05:36:00,54.3,46.1,29.83,NNW,338,0.0,0.0,75,0.00,,,0.00,WUHU216HW,2013-08-24 11:36:00,
2013-08-24 05:41:00,54.1,46.3,29.83,NNW,338,0.0,0.0,75,0.00,,,0.00,WUHU216HW,2013-08-24 11:41:00,
2013-08-24 05:47:00,53.9,46.5,29.83,NNW,338,0.0,0.0,76,0.00,,,0.00,WUHU216HW,2013-08-24 11:47:00,
2013-08-24 05:52:00,53.9,46.5,29.83,NNW,338,0.0,0.0,76,0.00,,,0.00,WUHU216HW,2013-08-24 11:52:00,
2013-08-24 05:57:00,53.7,46.3,29.83,SSE,158,0.0,0.0,76,0.00,,,0.00,WUHU216HW,2013-08-24 11:57:00,
2013-08-24 06:02:00,53.7,46.3,29.83,SSE,158,0.0,0.0,76,0.00,,,0.00,WUHU216HW,2013-08-24 12:02:00,
2013-08-24 06:07:00,53.6,46.9,29.83,NNW,338,0.0,0.0,78,0.00,,,0.00,WUHU216HW,2013-08-24 12:07:00,
2013-08-24 06:12:00,53.4,46.7,29.83,SSE,158,0.0,0.0,78,0.00,,,0.00,WUHU216HW,2013-08-24 12:12:00,
2013-08-24 06:17:00,53.4,46.7,29.83,NNW,338,0.0,0.0,78,0.00,,,0.00,WUHU216HW,2013-08-24 12:17:00,
2013-08-24 06:22:00,53.4,46.7,29.83,SSE,158,0.0,0.0,78,0.00,,,0.00,WUHU216HW,2013-08-24 12:22:00,
2013-08-24 06:27:00,53.2,46.5,29.83,NNW,338,0.0,0.0,78,0.00,,,0.00,WUHU216HW,2013-08-24 12:27:00,
2013-08-24 06:32:00,52.8,46.2,29.83,SSE,158,0.0,0.0,78,0.00,,,0.00,WUHU216HW,2013-08-24 12:32:00,
2013-08-24 06:38:00,52.7,46.7,29.83,SSE,158,0.0,0.0,80,0.00,,,0.00,WUHU216HW,2013-08-24 12:38:00,
2013-08-24 06:43:00,52.7,46.7,29.83,NNW,338,0.0,0.0,80,0.00,,,0.00,WUHU216HW,2013-08-24 12:43:00,
2013-08-24 06:48:00,52.5,46.5,29.83,SSE,158,0.0,0.0,80,0.00,,,0.00,WUHU216HW,2013-08-24 12:48:00,
2013-08-24 06:53:00,52.7,47.0,29.84,SSE,158,0.0,0.0,81,0.00,,,0.00,WUHU216HW,2013-08-24 12:53:00,
2013-08-24 06:58:00,52.8,47.2,29.84,SSE,158,0.0,0.0,81,0.00,,,0.00,WUHU216HW,2013-08-24 12:58:00,
2013-08-24 07:03:00,52.7,46.7,29.84,SSE,158,0.0,0.0,80,0.00,,,0.00,WUHU216HW,2013-08-24 13:03:00,
2013-08-24 07:08:00,52.7,46.7,29.84,SSE,158,0.0,0.0,80,0.00,,,0.00,WUHU216HW,2013-08-24 13:08:00,
2013-08-24 07:13:00,52.8,46.9,29.84,SSE,158,0.0,0.0,80,0.00,,,0.00,WUHU216HW,2013-08-24 13:13:00,
2013-08-24 07:19:00,52.8,47.2,29.84,SSE,158,0.0,0.0,81,0.00,,,0.00,WUHU216HW,2013-08-24 13:19:00,
2013-08-24 07:24:00,52.8,47.2,29.84,NNW,338,0.0,0.0,81,0.00,,,0.00,WUHU216HW,2013-08-24 13:24:00,
2013-08-24 07:29:00,52.8,47.2,29.84,SSE,158,0.0,0.0,81,0.00,,,0.00,WUHU216HW,2013-08-24 13:29:00,
2013-08-24 07:34:00,53.0,47.2,29.84,SSE,158,0.0,0.0,81,0.00,,,0.00,WUHU216HW,2013-08-24 13:34:00,
2013-08-24 07:39:00,53.0,47.4,29.84,SSE,158,0.0,0.0,81,0.00,,,0.00,WUHU216HW,2013-08-24 13:39:00,
2013-08-24 07:44:00,53.2,47.3,29.84,SSE,158,0.0,0.0,80,0.00,,,0.00,WUHU216HW,2013-08-24 13:44:00,
2013-08-24 07:49:00,53.4,47.4,29.84,SSE,158,0.0,0.0,80,0.00,,,0.00,WUHU216HW,2013-08-24 13:49:00,
2013-08-24 07:54:00,53.4,47.1,29.84,SSE,158,0.0,0.0,79,0.00,,,0.00,WUHU216HW,2013-08-24 13:54:00,
2013-08-24 07:59:00,53.4,47.1,29.85,SSE,158,0.0,0.0,79,0.00,,,0.00,WUHU216HW,2013-08-24 13:59:00,
2013-08-24 08:04:00,53.0,46.7,29.84,SSE,158,0.0,0.0,79,0.00,,,0.00,WUHU216HW,2013-08-24 14:04:00,
2013-08-24 08:09:00,53.0,46.7,29.84,SSE,158,0.0,0.0,79,0.00,,,0.00,WUHU216HW,2013-08-24 14:09:00,
2013-08-24 08:15:00,52.7,46.7,29.85,NNW,338,0.0,0.0,80,0.00,,,0.00,WUHU216HW,2013-08-24 14:15:00,
2013-08-24 08:20:00,52.7,46.7,29.85,SSE,158,0.0,0.0,80,0.00,,,0.00,WUHU216HW,2013-08-24 14:20:00,
2013-08-24 08:25:00,52.5,46.4,29.85,SSE,158,0.0,0.0,80,0.00,,,0.00,WUHU216HW,2013-08-24 14:25:00,
2013-08-24 08:30:00,52.5,46.8,29.85,SSE,158,0.0,0.0,81,0.00,,,0.00,WUHU216HW,2013-08-24 14:30:00,
2013-08-24 08:35:00,52.7,47.0,29.85,SSE,158,0.0,0.0,81,0.00,,,0.00,WUHU216HW,2013-08-24 14:35:00,
2013-08-24 08:40:00,52.8,47.2,29.85,SSE,158,0.0,0.0,81,0.00,,,0.00,WUHU216HW,2013-08-24 14:40:00,
2013-08-24 08:45:00,52.8,47.2,29.86,SSE,158,0.0,0.0,81,0.00,,,0.00,WUHU216HW,2013-08-24 14:45:00,
2013-08-24 08:50:00,53.2,47.6,29.86,SSE,158,0.0,0.0,81,0.00,,,0.00,WUHU216HW,2013-08-24 14:50:00,
2013-08-24 08:55:00,53.7,48.1,29.86,SSE,158,0.0,0.0,81,0.00,,,0.00,WUHU216HW,2013-08-24 14:55:00,
2013-08-24 09:01:00,53.9,48.5,29.86,SSE,158,0.0,0.0,82,0.00,,,0.00,WUHU216HW,2013-08-24 15:01:00,
2013-08-24 09:06:00,54.3,48.9,29.86,NNW,338,0.0,0.0,82,0.00,,,0.00,WUHU216HW,2013-08-24 15:06:00,
2013-08-24 09:11:00,55.0,49.5,29.86,SSE,158,0.0,0.0,82,0.00,,,0.00,WUHU216HW,2013-08-24 15:11:00,
2013-08-24 09:16:00,55.7,50.2,29.86,SSE,158,0.0,0.0,82,0.00,,,0.00,WUHU216HW,2013-08-24 15:16:00,
2013-08-24 09:21:00,56.8,50.5,29.86,SSE,158,0.0,0.0,80,0.00,,,0.00,WUHU216HW,2013-08-24 15:21:00,
2013-08-24 09:26:00,57.3,50.9,29.86,SSE,158,0.0,0.0,79,0.00,,,0.00,WUHU216HW,2013-08-24 15:26:00,
2013-08-24 09:31:00,58.1,51.6,29.86,SSE,158,0.0,0.0,79,0.00,,,0.00,WUHU216HW,2013-08-24 15:31:00,
2013-08-24 09:36:00,58.8,51.6,29.85,SSE,158,0.0,0.0,77,0.00,,,0.00,WUHU216HW,2013-08-24 15:36:00,
2013-08-24 09:41:00,59.5,52.1,29.86,SSE,158,0.0,0.0,76,0.00,,,0.00,WUHU216HW,2013-08-24 15:41:00,
2013-08-24 09:46:00,60.6,52.3,29.85,SSE,158,0.0,0.0,74,0.00,,,0.00,WUHU216HW,2013-08-24 15:46:00,
2013-08-24 09:51:00,61.7,52.2,29.85,SSE,158,0.0,0.0,71,0.00,,,0.00,WUHU216HW,2013-08-24 15:51:00,
2013-08-24 09:57:00,62.6,52.2,29.85,SSE,158,0.0,0.0,69,0.00,,,0.00,WUHU216HW,2013-08-24 15:57:00,
2013-08-24 10:02:00,63.1,52.3,29.85,NNW,338,0.0,0.0,68,0.00,,,0.00,WUHU216HW,2013-08-24 16:02:00,
2013-08-24 10:07:00,63.8,51.9,29.85,South,180,0.0,0.0,65,0.00,,,0.00,WUHU216HW,2013-08-24 16:07:00,
2013-08-24 10:12:00,64.5,51.6,29.85,South,180,0.0,1.1,63,0.00,,,0.00,WUHU216HW,2013-08-24 16:12:00,
2013-08-24 10:17:00,65.8,52.4,29.85,WSW,248,0.0,1.1,62,0.00,,,0.00,WUHU216HW,2013-08-24 16:17:00,
2013-08-24 10:22:00,67.2,52.6,29.85,South,180,2.9,3.3,59,0.00,,,0.00,WUHU216HW,2013-08-24 16:22:00,
2013-08-24 10:27:00,68.5,53.1,29.85,SSW,203,2.0,3.3,58,0.00,,,0.00,WUHU216HW,2013-08-24 16:27:00,
2013-08-24 10:32:00,69.9,53.0,29.85,SSW,203,0.0,3.5,55,0.00,,,0.00,WUHU216HW,2013-08-24 16:32:00,
2013-08-24 10:37:00,71.2,52.6,29.85,WNW,293,2.6,3.5,52,0.00,,,0.00,WUHU216HW,2013-08-24 16:37:00,
2013-08-24 10:42:00,71.7,52.1,29.85,NW,315,4.2,4.2,50,0.00,,,0.00,WUHU216HW,2013-08-24 16:42:00,
2013-08-24 10:47:00,72.3,52.0,29.85,NW,315,0.0,4.2,49,0.00,,,0.00,WUHU216HW,2013-08-24 16:47:00,
2013-08-24 10:52:00,73.4,52.4,29.86,WNW,293,0.0,4.4,48,0.00,,,0.00,WUHU216HW,2013-08-24 16:52:00,
2013-08-24 10:57:00,73.9,52.3,29.85,West,270,2.0,4.4,47,0.00,,,0.00,WUHU216HW,2013-08-24 16:57:00,
2013-08-24 11:02:00,74.3,52.0,29.85,NW,315,0.0,2.0,46,0.00,,,0.00,WUHU216HW,2013-08-24 17:02:00,
2013-08-24 11:07:00,74.8,52.5,29.85,NW,315,0.0,0.0,46,0.00,,,0.00,WUHU216HW,2013-08-24 17:07:00,
2013-08-24 11:12:00,75.9,52.9,29.85,West,270,0.0,0.8,45,0.00,,,0.00,WUHU216HW,2013-08-24 17:12:00,
2013-08-24 11:17:00,76.2,52.0,29.85,West,270,0.0,2.9,43,0.00,,,0.00,WUHU216HW,2013-08-24 17:17:00,
2013-08-24 11:22:00,76.1,51.3,29.85,South,180,0.0,2.9,42,0.00,,,0.00,WUHU216HW,2013-08-24 17:22:00,
2013-08-24 11:27:00,76.6,51.9,29.85,NNW,338,0.0,2.9,42,0.00,,,0.00,WUHU216HW,2013-08-24 17:27:00,
2013-08-24 11:32:00,76.8,51.3,29.85,NW,315,0.0,2.9,41,0.00,,,0.00,WUHU216HW,2013-08-24 17:32:00,
2013-08-24 11:37:00,75.9,50.3,29.85,East,90,2.6,2.6,41,0.00,,,0.00,WUHU216HW,2013-08-24 17:37:00,
2013-08-24 11:42:00,75.3,51.2,29.85,NE,45,5.1,5.1,43,0.00,,,0.00,WUHU216HW,2013-08-24 17:42:00,
2013-08-24 11:47:00,74.8,51.3,29.85,NW,315,0.0,5.1,44,0.00,,,0.00,WUHU216HW,2013-08-24 17:47:00,
2013-08-24 11:52:00,75.0,51.5,29.85,East,90,0.0,3.3,44,0.00,,,0.00,WUHU216HW,2013-08-24 17:52:00,
2013-08-24 11:57:00,75.2,51.7,29.85,East,90,0.0,6.4,44,0.00,,,0.00,WUHU216HW,2013-08-24 17:57:00,
2013-08-24 12:02:00,75.0,50.9,29.85,East,90,0.0,6.4,43,0.00,,,0.00,WUHU216HW,2013-08-24 18:02:00,
2013-08-24 12:07:00,75.0,50.9,29.85,NNW,338,1.1,5.8,43,0.00,,,0.00,WUHU216HW,2013-08-24 18:07:00,
2013-08-24 12:12:00,75.3,50.6,29.85,NE,45,0.0,13.1,42,0.00,,,0.00,WUHU216HW,2013-08-24 18:12:00,
2013-08-24 12:17:00,76.4,51.6,29.85,NNE,23,0.0,13.1,42,0.00,,,0.00,WUHU216HW,2013-08-24 18:17:00,
2013-08-24 12:22:00,77.1,50.2,29.85,SSW,203,4.0,4.9,39,0.00,,,0.00,WUHU216HW,2013-08-24 18:22:00,
2013-08-24 12:27:00,78.0,50.1,29.84,NNW,338,0.0,4.9,38,0.00,,,0.00,WUHU216HW,2013-08-24 18:27:00,
2013-08-24 12:32:00,77.7,50.0,29.84,WSW,248,3.3,5.3,38,0.00,,,0.00,WUHU216HW,2013-08-24 18:32:00,
2013-08-24 12:37:00,77.1,49.5,29.84,SW,225,1.3,5.3,38,0.00,,,0.00,WUHU216HW,2013-08-24 18:37:00,
2013-08-24 12:42:00,77.3,49.6,29.84,South,180,0.0,5.3,38,0.00,,,0.00,WUHU216HW,2013-08-24 18:42:00,
2013-08-24 12:47:00,77.0,48.6,29.84,West,270,0.0,5.3,37,0.00,,,0.00,WUHU216HW,2013-08-24 18:47:00,
2013-08-24 12:52:00,76.8,47.7,29.84,West,270,2.6,4.9,36,0.00,,,0.00,WUHU216HW,2013-08-24 18:52:00,
2013-08-24 12:57:00,75.9,47.6,29.84,West,270,3.1,5.5,37,0.00,,,0.00,WUHU216HW,2013-08-24 18:57:00,
2013-08-24 13:02:00,75.9,47.6,29.84,WSW,248,1.7,5.5,37,0.00,,,0.00,WUHU216HW,2013-08-24 19:02:00,
2013-08-24 13:07:00,75.7,46.7,29.84,WSW,248,3.8,3.8,36,0.00,,,0.00,WUHU216HW,2013-08-24 19:07:00,
2013-08-24 13:12:00,76.1,47.0,29.84,South,180,2.9,3.8,36,0.00,,,0.00,WUHU216HW,2013-08-24 19:12:00,
2013-08-24 13:17:00,76.6,47.5,29.83,South,180,7.1,7.1,36,0.00,,,0.00,WUHU216HW,2013-08-24 19:17:00,
2013-08-24 13:22:00,76.8,47.7,29.83,SW,225,0.0,7.1,36,0.00,,,0.00,WUHU216HW,2013-08-24 19:22:00,
2013-08-24 13:27:00,76.8,47.7,29.83,SW,225,2.6,3.1,36,0.00,,,0.00,WUHU216HW,2013-08-24 19:27:00,
2013-08-24 13:32:00,76.8,46.2,29.83,SW,225,1.3,5.5,35,0.00,,,0.00,WUHU216HW,2013-08-24 19:32:00,
2013-08-24 13:37:00,77.0,45.6,29.83,SSW,203,4.6,5.5,33,0.00,,,0.00,WUHU216HW,2013-08-24 19:37:00,
2013-08-24 13:42:00,77.1,44.9,29.83,West,270,0.0,6.0,32,0.00,,,0.00,WUHU216HW,2013-08-24 19:42:00,
2013-08-24 13:47:00,77.3,45.1,29.83,NE,45,3.5,6.0,32,0.00,,,0.00,WUHU216HW,2013-08-24 19:47:00,
2013-08-24 13:52:00,77.3,45.8,29.82,West,270,0.4,4.0,33,0.00,,,0.00,WUHU216HW,2013-08-24 19:52:00,
2013-08-24 13:57:00,77.1,45.7,29.82,SW,225,2.4,6.4,33,0.00,,,0.00,WUHU216HW,2013-08-24 19:57:00,
2013-08-24 14:02:00,77.1,45.7,29.82,WSW,248,0.0,6.4,33,0.00,,,0.00,WUHU216HW,2013-08-24 20:02:00,
2013-08-24 14:07:00,77.5,46.0,29.82,NNE,23,1.7,5.5,33,0.00,,,0.00,WUHU216HW,2013-08-24 20:07:00,
2013-08-24 14:12:00,77.1,45.7,29.82,North,0,1.1,6.4,33,0.00,,,0.00,WUHU216HW,2013-08-24 20:12:00,
2013-08-24 14:17:00,76.8,45.4,29.82,SW,225,1.3,6.4,33,0.00,,,0.00,WUHU216HW,2013-08-24 20:17:00,
2013-08-24 14:22:00,77.5,46.0,29.82,WNW,293,1.3,3.8,33,0.00,,,0.00,WUHU216HW,2013-08-24 20:22:00,
2013-08-24 14:27:00,78.0,45.7,29.82,SSE,158,0.0,4.0,32,0.00,,,0.00,WUHU216HW,2013-08-24 20:27:00,
2013-08-24 14:32:00,78.0,46.4,29.81,West,270,0.0,4.0,32,0.00,,,0.00,WUHU216HW,2013-08-24 20:32:00,
2013-08-24 14:37:00,78.4,46.0,29.81,WSW,248,0.0,2.6,32,0.00,,,0.00,WUHU216HW,2013-08-24 20:37:00,
2013-08-24 14:42:00,78.6,46.1,29.81,WNW,293,0.0,5.8,32,0.00,,,0.00,WUHU216HW,2013-08-24 20:42:00,
2013-08-24 14:47:00,78.9,46.4,29.81,West,270,0.0,5.8,32,0.00,,,0.00,WUHU216HW,2013-08-24 20:47:00,
2013-08-24 14:52:00,78.6,46.1,29.81,SE,135,0.0,5.8,32,0.00,,,0.00,WUHU216HW,2013-08-24 20:52:00,
2013-08-24 14:57:00,78.4,46.9,29.81,ESE,113,0.0,4.0,32,0.00,,,0.00,WUHU216HW,2013-08-24 20:57:00,
2013-08-24 15:02:00,79.1,46.4,29.80,NW,315,0.0,6.2,32,0.00,,,0.00,WUHU216HW,2013-08-24 21:02:00,
2013-08-24 15:07:00,79.5,46.9,29.80,WSW,248,3.8,6.2,32,0.00,,,0.00,WUHU216HW,2013-08-24 21:07:00,
2013-08-24 15:12:00,79.3,46.8,29.80,West,270,2.9,5.3,32,0.00,,,0.00,WUHU216HW,2013-08-24 21:12:00,
2013-08-24 15:17:00,79.3,46.8,29.80,WNW,293,4.4,4.4,32,0.00,,,0.00,WUHU216HW,2013-08-24 21:17:00,
2013-08-24 15:22:00,79.5,46.2,29.80,ENE,68,2.2,7.6,31,0.00,,,0.00,WUHU216HW,2013-08-24 21:22:00,
2013-08-24 15:27:00,80.2,46.8,29.80,West,270,0.0,10.5,31,0.00,,,0.00,WUHU216HW,2013-08-24 21:27:00,
2013-08-24 15:33:00,80.0,45.9,29.79,NNW,338,3.5,10.5,30,0.00,,,0.00,WUHU216HW,2013-08-24 21:33:00,
2013-08-24 15:38:00,80.4,46.2,29.79,NE,45,0.0,4.0,30,0.00,,,0.00,WUHU216HW,2013-08-24 21:38:00,
2013-08-24 15:43:00,80.4,46.2,29.79,North,0,0.6,4.0,30,0.00,,,0.00,WUHU216HW,2013-08-24 21:43:00,
2013-08-24 15:48:00,80.7,46.5,29.79,WNW,293,2.6,4.0,30,0.00,,,0.00,WUHU216HW,2013-08-24 21:48:00,
2013-08-24 15:53:00,80.9,46.6,29.79,West,270,3.8,4.0,30,0.00,,,0.00,WUHU216HW,2013-08-24 21:53:00,
2013-08-24 15:58:00,81.3,45.9,29.78,West,270,0.0,3.8,29,0.00,,,0.00,WUHU216HW,2013-08-24 21:58:00,
2013-08-24 16:03:00,81.3,45.9,29.79,SW,225,2.4,3.3,29,0.00,,,0.00,WUHU216HW,2013-08-24 22:03:00,
2013-08-24 16:08:00,81.6,45.1,29.78,West,270,3.8,4.4,28,0.00,,,0.00,WUHU216HW,2013-08-24 22:08:00,
2013-08-24 16:13:00,82.0,44.4,29.78,WSW,248,2.9,4.4,27,0.00,,,0.00,WUHU216HW,2013-08-24 22:13:00,
2013-08-24 16:18:00,82.2,44.5,29.78,West,270,0.0,4.2,27,0.00,,,0.00,WUHU216HW,2013-08-24 22:18:00,
2013-08-24 16:23:00,82.4,44.7,29.78,SSW,203,4.6,4.6,27,0.00,,,0.00,WUHU216HW,2013-08-24 22:23:00,
2013-08-24 16:28:00,82.5,43.8,29.78,West,270,0.0,4.6,26,0.00,,,0.00,WUHU216HW,2013-08-24 22:28:00,
2013-08-24 16:33:00,83.1,44.2,29.78,SSW,203,0.0,5.8,26,0.00,,,0.00,WUHU216HW,2013-08-24 22:33:00,
2013-08-24 16:38:00,83.4,43.5,29.77,WSW,248,0.0,5.8,25,0.00,,,0.00,WUHU216HW,2013-08-24 22:38:00,
2013-08-24 16:43:00,83.4,44.5,29.77,West,270,0.0,5.3,26,0.00,,,0.00,WUHU216HW,2013-08-24 22:43:00,
2013-08-24 16:48:00,84.0,43.9,29.77,WSW,248,1.7,5.3,25,0.00,,,0.00,WUHU216HW,2013-08-24 22:48:00,
2013-08-24 16:53:00,84.0,43.9,29.77,West,270,2.2,3.8,25,0.00,,,0.00,WUHU216HW,2013-08-24 22:53:00,
2013-08-24 16:58:00,83.1,43.2,29.77,West,270,0.0,3.8,25,0.00,,,0.00,WUHU216HW,2013-08-24 22:58:00,
2013-08-24 17:03:00,83.6,43.6,29.77,West,270,0.0,1.7,25,0.00,,,0.00,WUHU216HW,2013-08-24 23:03:00,
2013-08-24 17:08:00,83.1,43.2,29.77,SW,225,0.0,1.7,25,0.00,,,0.00,WUHU216HW,2013-08-24 23:08:00,
2013-08-24 17:13:00,82.0,43.3,29.77,SSE,158,0.0,3.3,26,0.00,,,0.00,WUHU216HW,2013-08-24 23:13:00,
2013-08-24 17:18:00,81.6,42.9,29.77,ESE,113,1.7,3.3,26,0.00,,,0.00,WUHU216HW,2013-08-24 23:18:00,
2013-08-24 17:23:00,81.8,43.2,29.76,East,90,0.0,4.4,26,0.00,,,0.00,WUHU216HW,2013-08-24 23:23:00,
2013-08-24 17:28:00,82.2,42.4,29.76,NE,45,4.9,4.9,25,0.00,,,0.00,WUHU216HW,2013-08-24 23:28:00,
2013-08-24 17:33:00,82.5,42.7,29.76,NNE,23,2.2,4.9,25,0.00,,,0.00,WUHU216HW,2013-08-24 23:33:00,
2013-08-24 17:38:00,83.1,41.1,29.76,NE,45,5.5,10.2,23,0.00,,,0.00,WUHU216HW,2013-08-24 23:38:00,
2013-08-24 17:43:00,82.2,41.4,29.76,ENE,68,4.4,10.2,24,0.00,,,0.00,WUHU216HW,2013-08-24 23:43:00,
2013-08-24 17:48:00,82.2,41.4,29.75,NE,45,6.2,8.2,24,0.00,,,0.00,WUHU216HW,2013-08-24 23:48:00,
2013-08-24 17:53:00,82.0,41.2,29.76,NE,45,3.1,7.3,24,0.00,,,0.00,WUHU216HW,2013-08-24 23:53:00,
2013-08-24 17:58:00,82.0,43.3,29.76,NNE,23,8.5,8.5,26,0.00,,,0.00,WUHU216HW,2013-08-24 23:58:00,
2013-08-24 18:03:00,81.6,44.1,29.76,NE,45,6.9,8.5,27,0.00,,,0.00,WUHU216HW,2013-08-25 00:03:00,
2013-08-24 18:08:00,81.3,43.8,29.75,ENE,68,2.2,7.6,27,0.00,,,0.00,WUHU216HW,2013-08-25 00:08:00,
2013-08-24 18:13:00,81.3,43.8,29.75,NNE,23,7.8,7.8,27,0.00,,,0.00,WUHU216HW,2013-08-25 00:13:00,
2013-08-24 18:18:00,80.7,43.4,29.75,NNE,23,9.6,9.6,27,0.00,,,0.00,WUHU216HW,2013-08-25 00:18:00,
2013-08-24 18:23:00,80.4,43.1,29.75,NNE,23,9.1,9.6,27,0.00,,,0.00,WUHU216HW,2013-08-25 00:23:00,
2013-08-24 18:28:00,80.4,43.1,29.75,NNE,23,5.1,9.3,27,0.00,,,0.00,WUHU216HW,2013-08-25 00:28:00,
2013-08-24 18:34:00,80.9,43.5,29.75,NNE,23,3.3,9.1,27,0.00,,,0.00,WUHU216HW,2013-08-25 00:34:00,
2013-08-24 18:39:00,80.7,43.4,29.74,NE,45,5.8,10.2,27,0.00,,,0.00,WUHU216HW,2013-08-25 00:39:00,
2013-08-24 18:44:00,80.4,43.1,29.74,ENE,68,1.5,10.2,27,0.00,,,0.00,WUHU216HW,2013-08-25 00:44:00,
2013-08-24 18:49:00,80.2,42.9,29.75,NNE,23,6.4,10.2,27,0.00,,,0.00,WUHU216HW,2013-08-25 00:49:00,
2013-08-24 18:54:00,80.4,42.9,29.74,ENE,68,3.8,14.0,27,0.00,,,0.00,WUHU216HW,2013-08-25 00:54:00,
2013-08-24 18:59:00,79.5,42.2,29.74,NE,45,2.9,14.0,27,0.00,,,0.00,WUHU216HW,2013-08-25 00:59:00,
2013-08-24 19:04:00,78.9,42.8,29.74,East,90,6.7,6.7,28,0.00,,,0.00,WUHU216HW,2013-08-25 01:04:00,
2013-08-24 19:09:00,78.0,43.1,29.73,ENE,68,0.0,6.7,29,0.00,,,0.00,WUHU216HW,2013-08-25 01:09:00,
2013-08-24 19:14:00,77.3,42.5,29.74,NE,45,5.3,5.5,29,0.00,,,0.00,WUHU216HW,2013-08-25 01:14:00,
2013-08-24 19:19:00,77.3,43.6,29.74,East,90,0.0,5.5,30,0.00,,,0.00,WUHU216HW,2013-08-25 01:19:00,
2013-08-24 19:24:00,76.8,43.1,29.74,ENE,68,2.2,5.5,30,0.00,,,0.00,WUHU216HW,2013-08-25 01:24:00,
2013-08-24 19:29:00,76.4,43.6,29.74,NE,45,0.0,4.4,31,0.00,,,0.00,WUHU216HW,2013-08-25 01:29:00,
2013-08-24 19:34:00,75.9,43.1,29.74,NE,45,1.5,4.4,31,0.00,,,0.00,WUHU216HW,2013-08-25 01:34:00,
2013-08-24 19:39:00,75.5,42.8,29.74,NE,45,1.7,4.6,31,0.00,,,0.00,WUHU216HW,2013-08-25 01:39:00,
2013-08-24 19:44:00,75.7,42.9,29.74,ENE,68,2.6,4.6,31,0.00,,,0.00,WUHU216HW,2013-08-25 01:44:00,
2013-08-24 19:49:00,75.5,42.8,29.74,ESE,113,3.1,4.6,31,0.00,,,0.00,WUHU216HW,2013-08-25 01:49:00,
2013-08-24 19:54:00,75.3,42.6,29.75,ENE,68,0.0,3.5,31,0.00,,,0.00,WUHU216HW,2013-08-25 01:54:00,
2013-08-24 19:59:00,75.3,42.6,29.75,ESE,113,2.9,3.5,31,0.00,,,0.00,WUHU216HW,2013-08-25 01:59:00,
2013-08-24 20:04:00,75.2,42.4,29.75,NE,45,2.6,4.9,31,0.00,,,0.00,WUHU216HW,2013-08-25 02:04:00,
2013-08-24 20:09:00,74.8,42.9,29.75,ENE,68,4.6,4.9,32,0.00,,,0.00,WUHU216HW,2013-08-25 02:09:00,
2013-08-24 20:14:00,74.8,42.9,29.75,ENE,68,1.3,4.6,32,0.00,,,0.00,WUHU216HW,2013-08-25 02:14:00,
2013-08-24 20:19:00,74.3,42.4,29.75,East,90,2.6,3.5,32,0.00,,,0.00,WUHU216HW,2013-08-25 02:19:00,
2013-08-24 20:24:00,74.3,41.6,29.75,ENE,68,1.3,3.5,31,0.00,,,0.00,WUHU216HW,2013-08-25 02:24:00,
2013-08-24 20:29:00,73.7,41.1,29.75,East,90,2.4,5.8,31,0.00,,,0.00,WUHU216HW,2013-08-25 02:29:00,
2013-08-24 20:34:00,73.2,40.6,29.75,East,90,1.3,5.8,31,0.00,,,0.00,WUHU216HW,2013-08-25 02:34:00,
2013-08-24 20:39:00,73.0,40.5,29.75,East,90,3.1,5.8,31,0.00,,,0.00,WUHU216HW,2013-08-25 02:39:00,
2013-08-24 20:44:00,73.0,40.5,29.75,ESE,113,2.9,5.8,31,0.00,,,0.00,WUHU216HW,2013-08-25 02:44:00,
2013-08-24 20:50:00,73.2,40.6,29.75,East,90,3.8,5.8,31,0.00,,,0.00,WUHU216HW,2013-08-25 02:50:00,
2013-08-24 20:55:00,73.2,39.9,29.76,East,90,5.5,5.8,30,0.00,,,0.00,WUHU216HW,2013-08-25 02:55:00,
2013-08-24 21:00:00,72.8,39.8,29.76,East,90,2.6,5.5,30,0.00,,,0.00,WUHU216HW,2013-08-25 03:00:00,
2013-08-24 21:05:00,72.3,39.9,29.76,East,90,0.0,4.4,31,0.00,,,0.00,WUHU216HW,2013-08-25 03:05:00,
2013-08-24 21:10:00,72.1,39.8,29.76,SE,135,0.0,2.0,31,0.00,,,0.00,WUHU216HW,2013-08-25 03:10:00,
2013-08-24 21:15:00,72.1,39.8,29.76,SSE,158,0.0,5.8,31,0.00,,,0.00,WUHU216HW,2013-08-25 03:15:00,
2013-08-24 21:20:00,72.1,39.0,29.76,South,180,0.0,5.8,30,0.00,,,0.00,WUHU216HW,2013-08-25 03:20:00,
2013-08-24 21:25:00,71.7,39.5,29.76,SSE,158,0.0,3.8,31,0.00,,,0.00,WUHU216HW,2013-08-25 03:25:00,
2013-08-24 21:30:00,71.4,39.2,29.77,NNW,338,0.0,1.3,31,0.00,,,0.00,WUHU216HW,2013-08-25 03:30:00,
2013-08-24 21:35:00,70.8,38.7,29.77,SSE,158,0.0,0.0,31,0.00,,,0.00,WUHU216HW,2013-08-25 03:35:00,
2013-08-24 21:40:00,70.3,39.0,29.77,SSE,158,0.0,0.0,32,0.00,,,0.00,WUHU216HW,2013-08-25 03:40:00,
2013-08-24 21:45:00,69.9,39.4,29.77,SSE,158,0.0,0.0,33,0.00,,,0.00,WUHU216HW,2013-08-25 03:45:00,
2013-08-24 21:50:00,69.2,38.7,29.77,South,180,0.0,0.0,33,0.00,,,0.00,WUHU216HW,2013-08-25 03:50:00,
2013-08-24 21:55:00,68.7,39.0,29.78,South,180,0.0,0.0,34,0.00,,,0.00,WUHU216HW,2013-08-25 03:55:00,
2013-08-24 22:00:00,68.7,39.0,29.77,South,180,0.0,0.0,34,0.00,,,0.00,WUHU216HW,2013-08-25 04:00:00,
2013-08-24 22:01:00,68.7,39.0,29.77,South,180,0.0,0.0,34,0.00,,,0.00,WUHU216HW,2013-08-25 04:01:00,
2013-08-24 22:02:00,68.5,39.0,29.77,South,180,0.0,0.0,34,0.00,,,0.00,WUHU216HW,2013-08-25 04:02:00,
2013-08-24 22:03:00,68.5,38.8,29.77,South,180,0.0,0.0,34,0.00,,,0.00,WUHU216HW,2013-08-25 04:03:00,
2013-08-24 22:08:00,68.3,38.6,29.77,South,180,0.0,0.0,34,0.00,,,0.00,WUHU216HW,2013-08-25 04:08:00,
2013-08-24 22:13:00,68.5,38.8,29.77,South,180,0.0,0.0,34,0.00,,,0.00,WUHU216HW,2013-08-25 04:13:00,
2013-08-24 22:18:00,68.5,38.8,29.77,South,180,0.0,0.0,34,0.00,,,0.00,WUHU216HW,2013-08-25 04:18:00,
2013-08-24 22:23:00,68.5,38.8,29.77,South,180,0.0,0.0,34,0.00,,,0.00,WUHU216HW,2013-08-25 04:23:00,
2013-08-24 22:28:00,68.1,38.5,29.77,South,180,0.0,0.0,34,0.00,,,0.00,WUHU216HW,2013-08-25 04:28:00,
2013-08-24 22:33:00,67.8,38.2,29.76,South,180,0.0,0.0,34,0.00,,,0.00,WUHU216HW,2013-08-25 04:33:00,
2013-08-24 22:38:00,67.6,38.8,29.76,SSE,158,0.0,0.0,35,0.00,,,0.00,WUHU216HW,2013-08-25 04:38:00,
2013-08-24 22:43:00,67.2,38.4,29.76,SSE,158,0.0,0.0,35,0.00,,,0.00,WUHU216HW,2013-08-25 04:43:00,
2013-08-24 22:48:00,66.7,38.0,29.76,SSE,158,0.0,0.0,35,0.00,,,0.00,WUHU216HW,2013-08-25 04:48:00,
2013-08-24 22:53:00,66.3,38.4,29.75,SSE,158,0.0,0.0,36,0.00,,,0.00,WUHU216HW,2013-08-25 04:53:00,
2013-08-24 22:58:00,66.0,38.1,29.75,NNW,338,0.0,0.0,36,0.00,,,0.00,WUHU216HW,2013-08-25 04:58:00,
2013-08-24 23:03:00,65.4,37.6,29.75,SSE,158,0.0,0.0,36,0.00,,,0.00,WUHU216HW,2013-08-25 05:03:00,
2013-08-24 23:08:00,65.1,38.0,29.75,SSE,158,0.0,0.0,37,0.00,,,0.00,WUHU216HW,2013-08-25 05:08:00,
2013-08-24 23:14:00,64.9,38.6,29.76,SSE,158,0.0,0.0,38,0.00,,,0.00,WUHU216HW,2013-08-25 05:14:00,
2013-08-24 23:19:00,64.5,38.2,29.76,WNW,293,1.7,2.2,38,0.00,,,0.00,WUHU216HW,2013-08-25 05:19:00,
2013-08-24 23:24:00,64.5,39.0,29.76,NW,315,0.0,2.2,39,0.00,,,0.00,WUHU216HW,2013-08-25 05:24:00,
2013-08-24 23:29:00,64.2,38.6,29.76,NW,315,0.0,0.0,39,0.00,,,0.00,WUHU216HW,2013-08-25 05:29:00,
2013-08-24 23:34:00,63.6,38.9,29.76,NW,315,0.0,0.0,40,0.00,,,0.00,WUHU216HW,2013-08-25 05:34:00,
2013-08-24 23:39:00,63.1,39.0,29.77,WNW,293,0.0,0.0,41,0.00,,,0.00,WUHU216HW,2013-08-25 05:39:00,
2013-08-24 23:44:00,62.7,38.6,29.76,West,270,0.0,0.0,41,0.00,,,0.00,WUHU216HW,2013-08-25 05:44:00,
2013-08-24 23:49:00,62.6,38.5,29.76,West,270,0.0,0.0,41,0.00,,,0.00,WUHU216HW,2013-08-25 05:49:00,
2013-08-24 23:54:00,62.4,38.9,29.77,West,270,0.0,0.0,42,0.00,,,0.00,WUHU216HW,2013-08-25 05:54:00,
2013-08-24 23:59:00,62.2,38.7,29.77,WSW,248,0.0,0.0,42,0.00,,,0.00,WUHU216HW,2013-08-25 05:59:00,